CAPE
0 0 0 1 14 42 2 44 4 0 0 0 0 0 0 107 55 40 18 0 279 368 370 250 253 197 228 240 280 278 211 76 21 7 6 2 72 64 65 45 14 19 35 31 34 13 13 16 13
0 0 5 10 1 12 54 7 0 0 0 0 0 0 0 53 57 70 15 3 455 461 351 289 271 238 242 184 172 212 185 90 50 49 20 27 53 41 29 22 21 8 7 23 32 11 26 10 12
0 1 9 17 7 6 39 2 0 0 0 0 0 0 47 3 67 82 36 1 540 496 379 351 330 310 240 179 197 159 131 70 187 199 85 23 43 49 43 15 3 1 0 11 21 18 12 9 12
0 2 0 0 2 33 29 36 15 0 0 0 0 0 0 0 16 32 86 12 602 533 430 360 362 337 226 170 176 204 191 251 214 230 154 46 12 8 33 28 7 0 7 15 16 16 3 1 0
0 0 0 0 0 5 5 0 0 0 0 0 0 0 1 0 0 27 128 80 597 679 492 390 341 356 230 145 160 199 185 149 229 135 121 51 33 29 31 27 15 11 0 10 18 12 5 1 0
0 0 0 1 0 0 0 0 0 0 0 0 0 0 0 0 0 0 10 102 621 712 549 431 342 325 219 123 108 102 171 156 146 99 25 31 45 31 30 30 11 5 16 12 13 27 31 9 0
0 0 0 0 0 0 0 0 0 0 0 0 0 0 0 0 0 0 0 1 482 687 599 508 422 323 207 102 52 23 37 45 58 16 0 21 34 24 48 32 10 1 14 11 29 25 26 5 0
0 0 0 0 0 0 0 0 0 0 0 0 0 0 0 0 0 0 0 0 27 667 608 517 470 394 267 144 42 3 2 0 0 9 8 0 31 23 13 20 18 11 18 15 21 25 25 2 0
0 0 0 0 0 0 0 0 0 0 0 0 0 0 0 0 0 0 0 0 0 2 405 482 441 393 284 152 48 0 0 0 0 0 6 23 29 23 6 26 7 5 21 26 16 17 13 10 0
0 0 0 0 0 0 0 0 0 0 0 0 0 0 0 0 0 0 0 0 0 0 0 30 356 390 276 172 52 6 0 0 0 1 7 16 19 12 13 22 6 0 3 18 7 12 9 2 0
0 0 0 0 0 0 0 0 0 0 0 0 0 0 0 0 0 0 0 0 0 0 0 0 0 53 235 177 88 12 3 0 0 0 2 5 12 13 26 21 11 6 5 23 15 10 0 0 0
0 0 0 0 0 0 0 0 0 0 0 0 0 0 0 0 0 0 0 0 0 0 0 0 0 0 31 195 90 27 11 0 0 0 0 0 7 8 10 7 2 16 28 15 0 0 0 0 0
0 0 0 0 0 0 0 0 0 0 0 0 0 0 0 0 0 0 0 0 0 0 0 0 0 0 0 0 111 86 2 0 0 0 0 0 12 6 12 7 1 0 27 10 0 0 0 0 6
0 0 0 0 0 0 0 0 0 0 0 0 0 0 0 0 0 0 0 0 0 0 0 0 0 0 0 0 0 3 103 1 0 0 0 0 0 1 8 9 4 0 9 3 0 0 0 0 0
0 0 0 0 0 0 0 0 0 0 0 0 0 0 0 0 0 0 0 0 0 0 0 0 0 0 0 0 0 0 0 21 19 0 0 0 1 0 0 7 12 7 6 4 0 0 0 0 0
0 0 0 0 0 0 0 0 0 0 0 0 0 0 0 0 0 0 0 0 0 0 0 0 0 0 0 0 0 0 0 0 0 40 6 6 0 0 0 7 22 14 3 1 1 0 0 0 0
0 0 0 0 0 0 0 0 0 0 0 0 0 0 0 0 0 0 0 0 0 0 0 0 0 0 0 0 0 0 0 0 0 12 14 1 31 3 0 3 13 17 7 3 0 0 0 0 0
0 0 0 0 0 0 0 0 0 0 0 0 0 0 0 0 0 0 0 0 0 0 0 0 0 0 0 0 0 0 0 0 0 0 3 21 12 4 4 18 11 12 14 1 1 0 0 0 0
0 0 0 0 0 0 0 0 0 0 0 0 0 0 0 0 0 0 0 0 0 0 0 0 0 0 0 0 0 0 0 0 0 0 0 0 6 21 1 10 11 16 5 0 1 0 0 0 0
0 0 0 0 0 0 0 0 0 0 0 0 0 0 0 0 0 0 0 0 0 0 0 0 0 0 0 0 0 0 0 0 0 0 0 0 0 43 3 4 16 13 14 0 0 0 1 0 0
0 0 0 0 0 0 0 0 0 0 0 0 0 0 0 0 0 0 0 0 0 0 0 0 0 0 0 0 0 0 0 0 0 0 0 0 0 0 2 3 9 10 10 1 0 0 0 0 0
0 0 0 0 0 0 0 0 0 0 0 0 0 0 0 0 0 0 0 0 0 0 0 0 0 0 0 0 0 0 0 0 0 0 0 0 0 0 1 1 0 1 1 1 1 0 0 0 1
0 0 0 0 0 0 0 0 0 0 0 0 0 0 0 0 0 0 0 0 0 0 0 0 0 0 0 0 0 0 0 0 0 0 0 0 0 0 0 1 19 1 0 0 1 0 0 0 0
0 0 0 0 0 0 0 0 0 0 0 0 0 0 0 0 0 0 0 0 0 0 0 0 0 0 0 0 0 0 0 0 0 0 0 0 0 0 0 0 11 0 0 1 1 0 0 0 0
0 0 0 0 0 0 0 0 0 0 0 0 0 0 0 0 0 0 0 1 1 0 0 0 0 0 0 0 1 0 0 0 0 0 0 0 0 0 0 0 3 1 1 1 0 0 0 0 0
0 0 0 0 0 0 0 0 0 0 0 0 0 0 0 0 0 1 3 1 0 0 0 0 0 1 1 0 0 0 1 2 2 1 0 0 0 0 3 0 0 1 1 1 1 0 0 0 0
0 0 0 0 0 0 0 0 0 0 0 0 0 0 0 0 0 0 0 0 0 1 1 3 2 0 1 0 0 1 2 1 6 3 0 0 0 0 0 24 17 8 1 1 1 1 1 1 2
0 0 0 0 0 0 0 0 0 0 0 0 0 0 0 0 0 0 1 0 1 1 1 1 1 1 1 1 1 0 0 5 0 0 0 0 0 0 0 29 32 24 0 0 1 1 1 4 2
0 0 0 0 0 0 0 0 0 0 0 0 0 0 0 0 1 0 0 0 1 0 0 0 1 2 1 1 1 1 0 4 0 0 0 0 0 0 0 1 6 0 0 0 0 0 0 0 0
0 0 0 0 0 0 0 0 0 0 0 0 0 0 0 0 0 0 0 0 1 1 0 1 1 2 2 1 0 0 0 0 0 0 0 0 0 0 1 0 0 0 0 0 0 0 0 0 0
CIN
-0 -0 -0 -7 -34 -37 -29 -48 -32 -0 -0 -0 -0 -0 -0 -45 -37 -45 -146 -0 -167 -165 -132 -134 -93 -76 -43 -33 -27 -34 -41 -66 -88 -0 -0 -0 -9 -5 -0 -0 -1 -0 -0 -0 -0 -0 -0 -1 -2
-0 -0 -33 -50 -2 -26 -29 -21 -0 -0 -0 -0 -0 -0 -0 -39 -99 -88 -94 -66 -118 -130 -116 -100 -96 -66 -47 -71 -28 -34 -53 -76 -69 -42 -3 -0 -0 -0 -0 -0 -2 -1 -0 -0 -3 -4 -1 -0 -0
-0 -93 -19 -30 -39 -45 -29 -15 -0 -0 -6 -0 -0 -0 -71 -22 -90 -99 -130 -6 -104 -105 -101 -76 -57 -44 -42 -59 -55 -33 -58 -85 -18 -15 -42 -0 -0 -0 -0 -0 -6 -0 -0 -0 -0 -0 -1 -0 -0
-0 -49 -0 -0 -50 -50 -31 -16 -39 -1 -0 -0 -0 -0 -0 -0 -132 -146 -122 -117 -64 -79 -80 -57 -50 -28 -49 -33 -41 -35 -32 -9 -28 -7 -23 -38 -3 -2 -1 -1 -1 -0 -0 -0 -0 -0 -0 -0 -0
-0 -0 -0 -0 -0 -74 -73 -66 -0 -0 -0 -0 -0 -0 -42 -0 -0 -113 -125 -117 -32 -52 -64 -64 -44 -21 -34 -58 -25 -19 -27 -36 -10 -43 -38 -98 -2 -1 -1 -1 -2 -1 -0 -4 -0 -0 -0 -0 -0
-0 -0 -0 -17 -0 -0 -0 -0 -0 -0 -0 -0 -0 -0 -0 -0 -0 -0 -48 -97 -32 -37 -79 -55 -51 -28 -34 -57 -43 -31 -14 -18 -26 -35 -95 -12 -121 -6 -3 -2 -4 -6 -2 -2 -0 -0 -0 -0 -0
-0 -0 -0 -0 -0 -0 -0 -0 -0 -0 -0 -0 -0 -0 -0 -0 -0 -0 -0 -33 -26 -21 -49 -49 -65 -26 -34 -46 -70 -86 -59 -58 -54 -91 -0 -2 -4 -7 -4 -2 -7 -5 -7 -3 -2 -4 -5 -4 -0
-0 -0 -0 -0 -0 -0 -0 -0 -0 -0 -0 -0 -0 -0 -0 -0 -0 -0 -0 -0 -7 -7 -14 -24 -30 -52 -38 -49 -71 -44 -4 -0 -0 -4 -7 -0 -7 -16 -10 -6 -9 -5 -5 -2 -8 -4 -8 -10 -0
-0 -0 -0 -0 -0 -0 -0 -0 -0 -0 -0 -0 -0 -0 -0 -0 -0 -0 -0 -0 -0 -43 -6 -14 -17 -26 -47 -59 -83 -0 -0 -0 -0 -0 -8 -11 -15 -18 -15 -14 -15 -9 -4 -4 -10 -6 -11 -21 -0
-0 -0 -0 -0 -0 -0 -0 -0 -0 -0 -0 -0 -0 -0 -0 -0 -0 -0 -0 -0 -0 -0 -0 -22 -7 -9 -23 -53 -85 -144 -0 -0 -0 -8 -11 -15 -20 -18 -15 -20 -14 -1 -3 -6 -12 -13 -22 -33 -0
-0 -0 -0 -0 -0 -0 -0 -0 -0 -0 -0 -0 -0 -0 -0 -0 -0 -0 -0 -0 -0 -0 -0 -0 -0 -92 -8 -26 -93 -156 -158 -0 -0 -0 -14 -15 -18 -21 -20 -26 -20 -15 -6 -3 -14 -23 -4 -0 -0
-0 -0 -0 -0 -0 -0 -0 -0 -0 -0 -0 -0 -0 -0 -0 -0 -0 -0 -0 -0 -0 -0 -0 -0 -0 -0 -94 -6 -19 -144 -186 -0 -0 -0 -0 -3 -22 -26 -32 -40 -32 -17 -14 -11 -8 -0 -0 -0 -0
-0 -0 -0 -0 -0 -0 -0 -0 -0 -0 -0 -0 -0 -0 -0 -0 -0 -0 -0 -0 -0 -0 -0 -0 -0 -0 -0 -0 -4 -18 -112 -0 -0 -0 -0 -0 -21 -26 -35 -40 -46 -0 -15 -17 -0 -0 -0 -0 -17
-0 -0 -0 -0 -0 -0 -0 -0 -0 -0 -0 -0 -0 -0 -0 -0 -0 -0 -0 -0 -0 -0 -0 -0 -0 -0 -0 -0 -0 -1 -2 -0 -0 -0 -0 -0 -0 -7 -32 -35 -43 -0 -19 -28 -0 -0 -0 -0 -0
-0 -0 -0 -0 -0 -0 -0 -0 -0 -0 -0 -0 -0 -0 -0 -0 -0 -0 -0 -0 -0 -0 -0 -0 -0 -0 -0 -0 -0 -0 -0 -40 -40 -0 -0 -0 -9 -0 -2 -14 -35 -12 -11 -52 -0 -0 -0 -0 -0
-0 -0 -0 -0 -0 -0 -0 -0 -0 -0 -0 -0 -0 -0 -0 -0 -0 -0 -0 -0 -0 -0 -0 -0 -0 -0 -0 -0 -0 -0 -0 -0 -0 -11 -0 -4 -0 -0 -0 -10 -19 -10 -15 -43 -21 -0 -0 -0 -0
-0 -0 -0 -0 -0 -0 -0 -0 -0 -0 -0 -0 -0 -0 -0 -0 -0 -0 -0 -0 -0 -0 -0 -0 -0 -0 -0 -0 -0 -0 -0 -0 -0 -0 -11 -8 -6 -14 -0 -17 -27 -11 -17 -21 -0 -0 -0 -0 -0
-0 -0 -0 -0 -0 -0 -0 -0 -0 -0 -0 -0 -0 -0 -0 -0 -0 -0 -0 -0 -0 -0 -0 -0 -0 -0 -0 -0 -0 -0 -0 -0 -0 -0 -0 -25 -0 -6 -46 -2 -28 -25 -7 -8 -0 -0 -0 -0 -0
-0 -0 -0 -0 -0 -0 -0 -0 -0 -0 -0 -0 -0 -0 -0 -0 -0 -0 -0 -0 -0 -0 -0 -0 -0 -0 -0 -0 -0 -0 -0 -0 -0 -0 -0 -0 -100 -20 -2 -2 -1 -29 -6 -0 -0 -0 -0 -0 -0
-0 -0 -0 -0 -0 -0 -0 -0 -0 -0 -0 -0 -0 -0 -0 -0 -0 -0 -0 -0 -0 -0 -0 -0 -0 -0 -0 -0 -0 -0 -0 -0 -0 -0 -0 -0 -0 -0 -27 -20 -8 -2 -2 -0 -0 -0 -0 -0 -0
-0 -0 -0 -0 -0 -0 -0 -0 -0 -0 -0 -0 -0 -0 -0 -0 -0 -0 -0 -0 -0 -0 -0 -0 -0 -0 -0 -0 -0 -0 -0 -0 -0 -0 -0 -0 -0 -0 -0 -2 -2 -0 -6 -0 -0 -0 -0 -0 -0
-0 -0 -0 -0 -0 -0 -0 -0 -0 -0 -0 -0 -0 -0 -0 -0 -0 -0 -0 -0 -0 -0 -0 -0 -0 -0 -0 -0 -0 -0 -0 -0 -0 -0 -0 -0 -0 -0 -0 -0 -0 -34 -0 -0 -0 -0 -0 -0 -0
-0 -0 -0 -0 -0 -0 -0 -0 -0 -0 -0 -0 -0 -0 -0 -0 -0 -0 -0 -0 -0 -0 -0 -0 -0 -0 -0 -0 -0 -0 -0 -0 -0 -0 -0 -0 -0 -0 -0 -0 -13 -2 -0 -0 -0 -0 -0 -0 -0
-0 -0 -0 -0 -0 -0 -0 -0 -0 -0 -0 -0 -0 -0 -0 -0 -0 -0 -0 -0 -0 -0 -0 -0 -0 -0 -0 -0 -0 -0 -0 -0 -0 -0 -0 -0 -0 -0 -0 -0 -0 -0 -0 -0 -0 -0 -0 -0 -0
-0 -0 -0 -0 -0 -0 -0 -0 -0 -0 -0 -0 -0 -0 -0 -0 -0 -0 -0 -0 -0 -0 -0 -0 -0 -0 -0 -0 -0 -0 -0 -0 -0 -0 -0 -0 -0 -0 -0 -0 -0 -0 -0 -0 -0 -0 -0 -0 -0
-0 -0 -0 -0 -0 -0 -0 -0 -0 -0 -0 -0 -0 -0 -0 -0 -0 -0 -0 -0 -0 -0 -0 -0 -0 -0 -0 -0 -0 -0 -0 -1 -0 -3 -0 -0 -0 -0 -0 -0 -0 -0 -0 -0 -0 -0 -0 -0 -0
-0 -0 -0 -0 -0 -0 -0 -0 -0 -0 -0 -0 -0 -0 -0 -0 -0 -0 -0 -0 -0 -0 -0 -0 -0 -0 -0 -0 -0 -0 -0 -3 -1 -4 -0 -0 -0 -0 -0 -1 -24 -1 -0 -0 -0 -0 -0 -0 -0
-0 -0 -0 -0 -0 -0 -0 -0 -0 -0 -0 -0 -0 -0 -0 -0 -0 -0 -0 -0 -0 -0 -0 -0 -0 -0 -0 -0 -0 -0 -2 -3 -1 -0 -0 -0 -0 -0 -0 -0 -15 -32 -0 -0 -0 -0 -0 -0 -0
-0 -0 -0 -0 -0 -0 -0 -0 -0 -0 -0 -0 -0 -0 -0 -0 -0 -0 -0 -0 -0 -0 -0 -0 -0 -0 -0 -0 -0 -0 -0 -2 -0 -0 -0 -0 -0 -0 -0 -1 -23 -0 -0 -0 -0 -0 -0 -0 -0
-0 -0 -0 -0 -0 -0 -0 -0 -0 -0 -0 -0 -0 -0 -0 -0 -0 -0 -0 -0 -0 -0 -0 -0 -0 -0 -0 -0 -0 -0 -0 -0 -4 -9 -0 -0 -0 -0 -0 -0 -0 -0 -0 -0 -0 -0 -0 -0 -0
Wind_Speed
26 24 21 15 16 20 24 23 27 25 20 19 17 18 18 18 22 20 18 17 11 6 6 6 5 4 3 2 0 1 2 3 5 5 4 2 3 1 2 4 7 6 6 6 6 7 6 6 6
23 19 14 13 17 22 22 19 19 19 19 19 18 20 18 18 17 15 20 23 8 6 5 4 4 3 2 1 1 2 2 3 4 4 4 3 4 0 1 2 2 3 3 4 4 5 6 7 7
10 10 13 12 13 18 18 19 20 25 18 19 19 18 18 21 19 18 23 20 8 7 5 5 2 2 1 1 1 3 3 4 5 6 4 3 4 5 2 1 2 2 3 2 2 3 4 6 7
13 16 13 11 12 16 16 17 24 22 21 20 20 17 15 18 18 23 23 20 9 7 5 4 2 2 0 2 3 2 4 6 5 5 4 4 4 4 5 4 2 2 2 1 2 3 4 6 6
15 16 14 9 8 5 20 17 21 21 20 22 21 22 18 19 20 22 22 21 10 8 7 5 3 4 4 3 3 5 4 6 7 7 6 5 6 5 4 4 3 3 1 1 1 3 4 5 5
17 17 15 13 12 14 11 20 19 22 22 23 22 24 20 19 21 23 23 23 14 10 10 8 6 5 6 7 7 6 8 8 8 8 8 7 6 6 6 5 4 3 3 2 4 4 4 4 4
15 16 15 13 12 12 12 19 19 21 23 21 25 22 19 22 23 24 23 23 19 14 12 12 9 9 10 9 10 11 11 11 11 9 9 10 8 8 8 6 4 3 4 4 4 3 6 4 3
15 14 12 11 10 8 18 18 20 19 14 24 17 23 22 23 24 25 24 23 22 17 18 16 15 13 14 15 13 12 14 14 12 12 12 12 12 10 8 8 6 4 5 6 4 5 6 4 3
15 14 13 12 13 12 18 18 16 18 16 19 15 22 15 22 26 26 25 25 24 22 18 20 19 18 17 15 16 16 15 16 15 13 13 12 12 12 11 10 8 6 7 7 5 6 6 5 4
14 13 14 16 13 10 18 19 24 22 26 20 19 19 23 26 29 29 29 29 27 28 27 26 25 23 23 23 21 19 18 19 18 17 15 14 14 14 14 13 10 9 9 8 8 6 5 4 4
14 14 14 16 16 17 17 21 25 21 20 18 25 27 32 31 31 31 31 28 30 30 31 33 31 29 26 27 26 25 22 20 21 19 18 17 16 16 15 15 14 12 11 10 9 8 7 6 6
15 16 17 17 19 20 20 21 24 17 18 22 24 25 23 26 27 31 30 31 32 33 32 32 32 32 30 28 32 29 25 22 23 23 20 20 19 18 18 17 16 16 14 12 11 11 9 7 6
15 18 19 17 17 16 18 22 23 19 19 20 19 21 25 25 29 28 26 30 31 32 32 33 34 35 34 34 31 29 28 29 26 28 25 23 22 21 20 19 19 18 17 15 14 12 12 12 8
18 18 16 16 19 20 24 26 25 21 23 24 25 25 26 28 31 25 28 30 30 31 32 32 34 35 36 36 36 36 32 33 33 31 30 28 26 25 24 23 22 20 20 18 17 14 13 12 10
19 22 23 18 20 22 26 27 23 27 30 35 37 37 35 30 26 28 27 29 28 29 31 32 33 33 35 39 40 40 39 36 33 33 36 33 30 27 26 27 25 23 22 20 18 16 14 13 11
22 20 28 24 24 25 29 33 26 29 32 33 34 33 30 27 26 28 29 29 29 31 32 33 35 36 37 38 39 41 42 41 38 32 34 40 33 30 27 29 29 26 25 23 21 19 17 15 14
25 26 28 32 32 28 27 31 27 33 30 28 28 30 23 23 25 28 28 28 30 33 36 38 38 39 41 41 41 41 42 43 41 39 33 34 41 34 34 33 31 29 27 26 24 22 20 18 16
26 27 28 30 28 32 29 26 30 30 26 25 25 19 20 20 21 19 21 26 31 34 36 40 42 43 43 43 45 45 44 43 42 41 42 37 34 37 37 35 33 32 30 29 27 25 22 20 18
23 26 28 27 26 36 30 32 32 30 26 20 20 17 19 20 24 23 27 31 33 38 43 45 47 47 48 51 52 51 49 49 48 46 44 46 40 42 39 40 36 34 33 31 29 27 25 22 20
26 27 27 26 29 29 31 35 29 27 22 20 19 21 22 22 24 29 31 35 41 44 47 48 49 50 51 52 51 51 51 50 49 49 49 47 49 47 40 43 35 37 35 32 30 30 26 26 24
28 24 26 28 32 25 34 32 32 23 22 21 24 22 26 29 33 37 40 48 50 49 51 50 51 52 51 52 53 51 50 50 51 51 51 48 46 48 41 39 37 36 37 35 33 33 31 29 26
27 23 29 29 32 33 30 37 25 20 29 22 24 25 29 36 40 45 53 53 50 47 48 52 56 55 53 52 53 53 55 56 53 53 53 53 50 45 39 38 33 37 35 36 34 34 34 30 31
21 29 26 23 25 28 25 29 24 23 26 26 27 29 36 40 44 53 54 51 51 54 53 55 53 53 54 49 49 52 53 51 51 52 53 53 52 50 46 49 40 38 36 38 33 36 36 34 34
28 27 25 23 26 33 25 26 26 26 26 26 27 33 40 46 53 51 52 53 54 50 49 50 50 49 47 49 48 50 51 50 51 52 54 55 55 53 51 48 49 41 38 39 34 35 37 36 35
29 30 29 30 35 34 22 27 21 21 22 25 31 41 44 44 51 55 56 51 49 49 50 49 48 50 48 47 47 48 50 50 48 47 49 51 53 53 52 48 43 44 36 37 34 33 33 36 37
26 26 28 35 37 34 23 23 25 24 21 26 35 42 43 48 51 54 47 48 47 48 46 45 47 50 48 47 48 47 48 46 46 45 47 49 52 52 52 47 39 43 35 33 35 34 31 32 36
23 26 22 28 28 33 25 25 25 18 24 33 41 42 47 46 50 51 48 45 47 46 45 42 46 47 47 45 45 45 46 46 43 42 43 45 48 51 52 52 46 37 35 29 36 32 31 31 31
21 20 25 28 37 41 32 30 23 21 28 30 38 41 44 46 49 49 44 40 41 42 42 39 43 38 47 43 40 40 43 42 41 40 40 41 44 48 52 52 44 32 30 28 30 28 28 30 27
21 21 21 24 26 35 35 29 16 21 25 29 34 39 42 45 46 41 33 33 29 34 37 33 36 31 36 34 29 29 36 37 36 37 37 38 39 43 46 46 42 33 28 24 27 25 25 24 27
18 17 18 28 30 25 22 19 9 15 24 30 33 39 40 39 40 35 27 22 25 24 22 21 19 18 30 19 17 24 28 29 31 30 33 31 31 34 37 37 35 30 26 25 21 22 18 11 19
Wind_Direction
301 289 294 317 307 296 284 286 287 283 284 301 302 300 297 303 288 290 325 330 3 34 40 60 68 75 85 96 201 240 277 293 287 290 297 296 303 284 333 92 93 79 67 60 62 62 64 65 60
301 306 323 327 307 286 283 297 299 307 300 300 305 299 301 294 317 322 313 312 2 12 24 22 71 78 85 106 270 263 267 281 283 279 281 273 265 334 99 104 67 58 46 35 45 57 54 73 77
172 30 331 341 322 289 291 292 293 299 321 314 299 309 302 297 312 316 316 328 12 1 18 2 28 62 8 284 252 266 265 271 276 271 253 252 253 260 248 249 281 308 339 36 10 53 76 84 87
112 104 7 353 326 298 303 297 270 301 319 323 311 306 318 323 314 316 318 324 346 344 4 1 337 302 324 281 267 255 268 272 266 261 235 242 251 252 253 261 268 286 309 356 57 84 96 101 103
107 90 31 64 141 310 298 314 285 295 316 326 315 298 304 312 318 320 318 321 330 326 327 340 312 285 281 275 260 265 259 268 266 258 247 236 251 244 238 248 259 270 263 114 104 110 112 109 114
80 95 90 98 83 158 356 288 305 309 311 316 315 303 303 308 311 317 317 321 320 317 312 311 307 277 274 275 274 270 268 267 261 255 249 244 236 244 241 240 240 252 247 154 138 134 132 129 130
89 77 87 106 141 158 83 281 313 316 315 324 302 306 306 308 309 313 319 319 322 316 309 303 303 284 279 273 270 272 270 267 263 256 247 247 238 245 249 227 224 223 198 180 167 199 147 147 150
92 84 82 96 123 106 319 324 335 349 353 317 345 308 307 314 314 310 312 315 322 321 306 302 295 288 281 279 273 269 268 265 260 256 250 246 246 243 233 225 219 223 208 188 203 161 154 164 174
89 72 75 79 63 59 5 352 0 353 353 340 342 329 344 327 318 315 318 315 316 319 316 301 295 288 281 278 274 272 269 266 260 252 254 244 242 241 240 223 218 220 210 195 207 175 167 167 177
70 61 53 40 44 39 0 355 341 341 331 335 332 323 324 324 314 311 309 306 308 307 305 303 292 287 280 277 276 272 270 266 263 257 252 246 244 243 243 232 223 209 204 196 191 196 195 211 211
35 33 29 21 20 9 1 352 343 345 343 344 330 324 313 313 313 309 308 310 306 304 300 293 293 289 282 275 274 272 270 266 262 254 249 247 245 242 240 236 240 230 215 211 205 209 217 215 201
22 14 6 6 4 1 359 356 346 349 340 334 329 326 328 324 320 314 311 310 309 305 302 299 296 293 289 282 275 270 267 265 259 254 247 246 242 239 237 236 236 238 231 222 219 221 223 226 209
15 5 5 12 10 7 1 351 346 337 341 340 341 337 327 323 319 318 319 315 312 308 306 302 298 293 291 290 283 279 269 263 257 257 252 245 243 236 236 236 234 235 233 225 225 222 230 242 230
9 5 8 13 2 0 350 345 345 348 347 337 332 328 324 320 317 318 318 317 314 313 310 309 303 297 292 289 286 284 278 270 263 254 250 247 242 241 239 238 235 233 227 223 226 226 224 228 221
10 360 358 3 0 354 353 347 345 341 337 327 320 319 318 319 318 316 318 315 313 312 312 311 308 305 299 291 286 283 282 281 270 261 251 245 242 240 237 239 236 234 229 225 224 224 222 221 226
4 7 353 359 354 352 352 343 346 340 334 328 325 323 319 319 318 317 316 314 313 312 310 309 306 303 301 297 292 286 282 279 281 270 258 250 240 237 236 239 235 233 230 226 224 219 220 217 223
359 353 351 346 348 354 352 342 347 342 340 335 334 333 335 333 327 325 319 317 315 313 310 307 305 302 298 296 293 289 285 279 276 277 262 249 252 240 241 236 233 230 229 228 223 222 219 223 231
356 354 352 348 353 348 346 339 342 344 343 337 337 348 350 349 343 344 338 329 321 316 313 309 305 302 299 296 292 288 284 281 277 273 272 259 243 245 241 234 230 227 229 227 224 220 226 223 224
1 355 351 352 356 350 351 343 345 349 349 347 348 354 350 346 343 341 335 332 327 319 312 308 303 300 297 293 290 285 281 279 276 272 271 271 262 245 234 230 229 224 224 224 222 219 218 228 221
357 355 358 359 358 355 352 347 352 354 2 1 356 349 351 348 346 340 337 331 326 318 313 308 304 300 296 293 289 283 280 277 274 272 269 271 267 265 232 235 227 225 224 218 219 217 225 236 222
356 2 1 356 354 3 355 356 359 12 12 7 359 355 350 347 340 334 330 325 322 317 312 308 303 299 295 291 287 283 280 275 272 270 268 266 267 266 238 227 226 230 223 219 224 218 222 226 227
359 5 355 355 357 355 4 351 4 11 358 5 0 354 347 340 335 330 326 324 322 319 315 309 303 300 296 293 286 281 276 272 269 268 266 263 262 261 260 226 223 226 226 224 226 225 225 223 220
4 352 356 360 1 1 6 358 1 2 360 356 354 350 343 340 336 329 328 326 323 318 314 310 305 300 296 292 286 280 277 274 270 266 265 261 258 258 256 253 222 225 230 224 222 224 226 227 224
354 358 5 11 8 360 6 2 359 1 359 358 359 351 344 340 336 335 333 329 326 325 321 317 309 303 298 292 287 279 275 274 270 266 262 258 256 255 255 259 248 225 215 224 227 220 227 229 230
358 359 360 360 359 358 11 357 355 358 2 5 358 349 346 346 342 339 336 336 333 329 325 320 313 304 300 295 288 278 272 270 269 267 263 258 254 252 252 254 257 219 218 222 222 222 222 225 228
2 6 5 353 354 353 353 357 2 5 16 8 357 351 349 347 345 343 343 341 337 333 332 331 321 311 303 294 286 279 269 269 267 268 262 258 253 250 249 251 256 229 224 224 220 226 228 232 234
4 2 12 0 360 355 360 356 353 14 5 360 355 354 351 351 351 349 346 346 339 339 338 338 327 318 308 298 287 278 270 267 266 267 263 258 255 250 248 245 246 243 225 224 220 232 230 229 233
5 13 3 5 354 350 350 351 357 2 360 2 358 357 355 354 353 353 351 353 350 347 346 345 335 331 309 301 293 282 269 266 267 263 261 256 255 251 245 241 240 244 229 232 233 234 237 233 239
3 6 9 8 1 351 350 354 12 9 9 1 359 359 358 357 357 359 360 360 360 358 357 356 351 351 306 277 306 293 270 263 264 258 258 255 257 251 242 236 234 236 239 239 241 246 245 251 248
5 4 9 359 358 356 359 1 27 17 7 2 -0 1 2 1 2 4 6 0 7 4 0 2 359 1 304 284 346 291 266 261 256 256 253 254 259 247 236 228 228 238 245 246 240 240 246 246 250